• In India
  • List of Countries
  • For 7 days
  • Water Temperature
  • Satellite Maps
  • Weather Map
  • Weather Widgets
  • user-avatar
    Login

    Hourly Weather Salzburg

    Today, 16 October, Tuesday

    Time Temperature Precipitation Wind Pressure Humidity
    00:00 +3°C° 0 mm 2 mps 627 mmHg 86%
    01:00 +3°C° 0 mm 2 mps 627 mmHg 85%
    02:00 +3°C° 0 mm 2 mps 627 mmHg 85%
    03:00 +3°C° 0 mm 2 mps 627 mmHg 85%
    04:00 +3°C° 0 mm 2 mps 627 mmHg 85%
    05:00 +3°C° 0 mm 2 mps 627 mmHg 84%
    06:00 +4°C° 0 mm 1 mps 627 mmHg 83%
    07:00 +3°C° 0 mm 2 mps 627 mmHg 81%
    08:00 +7°C° 0 mm 1 mps 628 mmHg 71%
    09:00 +10°C° 0 mm 1 mps 629 mmHg 62%
    10:00 +12°C° 0 mm 1 mps 630 mmHg 52%
    11:00 +13°C° 0 mm 1 mps 630 mmHg 50%
    12:00 +14°C° 0 mm 1 mps 631 mmHg 48%
    13:00 +15°C° 0 mm 1 mps 631 mmHg 46%
    14:00 +14°C° 0 mm 1 mps 630 mmHg 52%
    15:00 +13°C° 0 mm 1 mps 630 mmHg 58%
    16:00 +12°C° 0 mm 1 mps 629 mmHg 64%
    17:00 +10°C° 0 mm 1 mps 629 mmHg 72%
    18:00 +8°C° 0 mm 1 mps 628 mmHg 80%
    19:00 +6°C° 0 mm 1 mps 628 mmHg 88%
    20:00 +6°C° 0 mm 1 mps 628 mmHg 89%
    21:00 +6°C° 0 mm 1 mps 628 mmHg 89%
    22:00 +5°C° 0 mm 1 mps 628 mmHg 89%
    23:00 +5°C° 0 mm 1 mps 628 mmHg 89%

    Tomorrow, 17 October, Wednesday

    Time Temperature Precipitation Wind Pressure Humidity
    00:00 +5°C° 0 mm 1 mps 628 mmHg 89%
    01:00 +5°C° 0 mm 1 mps 627 mmHg 88%
    02:00 +4°C° 0 mm 1 mps 627 mmHg 88%
    03:00 +4°C° 0 mm 1 mps 627 mmHg 88%
    04:00 +4°C° 0 mm 1 mps 627 mmHg 88%
    05:00 +4°C° 0 mm 1 mps 627 mmHg 87%
    06:00 +4°C° 0 mm 1 mps 627 mmHg 86%
    07:00 +4°C° 0 mm 1 mps 627 mmHg 85%
    08:00 +7°C° 0 mm 1 mps 628 mmHg 76%
    09:00 +9°C° 0 mm 0 mps 629 mmHg 67%
    10:00 +11°C° 0 mm 0 mps 630 mmHg 57%
    11:00 +13°C° 0 mm 1 mps 630 mmHg 56%
    12:00 +14°C° 0 mm 1 mps 630 mmHg 55%
    13:00 +14°C° 0 mm 1 mps 630 mmHg 53%
    14:00 +13°C° 0.1 mm 1 mps 629 mmHg 60%
    15:00 +13°C° 0.1 mm 1 mps 629 mmHg 67%
    16:00 +12°C° 0.1 mm 1 mps 628 mmHg 74%
    17:00 +10°C° 0.1 mm 1 mps 628 mmHg 80%
    18:00 +8°C° 0.1 mm 1 mps 627 mmHg 87%
    19:00 +6°C° 0.1 mm 1 mps 627 mmHg 94%
    20:00 +6°C° 0 mm 1 mps 627 mmHg 94%
    21:00 +6°C° 0 mm 1 mps 627 mmHg 94%
    22:00 +5°C° 0 mm 1 mps 627 mmHg 94%
    23:00 +5°C° 0 mm 1 mps 627 mmHg 93%

    Day after tomorrow, 18 October, Thursday

    Time Temperature Precipitation Wind Pressure Humidity
    00:00 +5°C° 0 mm 1 mps 627 mmHg 93%
    01:00 +5°C° 0 mm 1 mps 627 mmHg 93%
    02:00 +4°C° 0 mm 1 mps 626 mmHg 92%
    03:00 +4°C° 0 mm 1 mps 626 mmHg 92%
    04:00 +4°C° 0 mm 1 mps 626 mmHg 92%
    05:00 +4°C° 0 mm 1 mps 626 mmHg 92%
    06:00 +4°C° 0 mm 1 mps 626 mmHg 92%
    07:00 +4°C° 0 mm 1 mps 626 mmHg 91%
    08:00 +7°C° 0 mm 1 mps 627 mmHg 84%
    09:00 +8°C° 0 mm 0 mps 628 mmHg 76%
    10:00 +11°C° 0 mm 0 mps 629 mmHg 69%
    11:00 +12°C° 0 mm 1 mps 629 mmHg 65%
    12:00 +13°C° 0 mm 1 mps 629 mmHg 62%
    13:00 +13°C° 0 mm 1 mps 629 mmHg 59%
    14:00 +13°C° 0 mm 1 mps 629 mmHg 65%
    15:00 +12°C° 0 mm 1 mps 629 mmHg 71%
    16:00 +11°C° 0 mm 1 mps 628 mmHg 77%
    17:00 +9°C° 0 mm 1 mps 628 mmHg 83%
    18:00 +8°C° 0 mm 1 mps 628 mmHg 89%
    19:00 +5°C° 0 mm 0 mps 628 mmHg 95%
    20:00 +5°C° 0 mm 0 mps 628 mmHg 96%
    21:00 +5°C° 0 mm 0 mps 628 mmHg 96%
    22:00 +5°C° 0 mm 0 mps 628 mmHg 96%
    23:00 +4°C° 0 mm 0 mps 628 mmHg 96%

    19 October, Friday

    Time Temperature Precipitation Wind Pressure Humidity
    00:00 +5°C° 0 mm 1 mps 628 mmHg 96%
    01:00 +5°C° 0 mm 1 mps 628 mmHg 96%
    02:00 +4°C° 0 mm 1 mps 628 mmHg 96%
    03:00 +4°C° 0 mm 1 mps 627 mmHg 96%
    04:00 +4°C° 0 mm 1 mps 627 mmHg 95%
    05:00 +4°C° 0 mm 1 mps 627 mmHg 95%
    06:00 +4°C° 0 mm 1 mps 628 mmHg 95%
    07:00 +4°C° 0 mm 1 mps 628 mmHg 95%
    08:00 +6°C° 0 mm 1 mps 629 mmHg 87%
    09:00 +9°C° 0 mm 1 mps 630 mmHg 79%
    10:00 +11°C° 0 mm 1 mps 631 mmHg 71%
    11:00 +12°C° 0 mm 1 mps 631 mmHg 67%
    12:00 +13°C° 0 mm 1 mps 631 mmHg 63%
    13:00 +14°C° 0 mm 1 mps 631 mmHg 58%
    14:00 +13°C° 0 mm 1 mps 631 mmHg 63%
    15:00 +12°C° 0 mm 1 mps 630 mmHg 69%
    16:00 +11°C° 0 mm 1 mps 630 mmHg 74%
    17:00 +10°C° 0 mm 1 mps 630 mmHg 81%
    18:00 +8°C° 0 mm 1 mps 629 mmHg 88%
    19:00 +5°C° 0 mm 0 mps 629 mmHg 94%
    20:00 +4°C° 0 mm 0 mps 629 mmHg 95%
    21:00 +4°C° 0 mm 0 mps 629 mmHg 95%
    22:00 +5°C° 0 mm 1 mps 629 mmHg 95%
    23:00 +5°C° 0 mm 1 mps 629 mmHg 95%

    20 October, Saturday

    Time Temperature Precipitation Wind Pressure Humidity
    00:00 +5°C° 0 mm 1 mps 629 mmHg 95%
    01:00 +4°C° 0 mm 1 mps 629 mmHg 95%
    02:00 +4°C° 0 mm 1 mps 629 mmHg 95%
    03:00 +4°C° 0 mm 1 mps 629 mmHg 95%
    04:00 +4°C° 0 mm 1 mps 629 mmHg 96%
    05:00 +4°C° 0 mm 1 mps 629 mmHg 96%
    06:00 +4°C° 0 mm 1 mps 629 mmHg 96%
    07:00 +4°C° 0 mm 1 mps 629 mmHg 96%
    08:00 +5°C° 0 mm 1 mps 630 mmHg 90%
    09:00 +7°C° 0 mm 1 mps 631 mmHg 83%
    10:00 +9°C° 0 mm 1 mps 632 mmHg 77%
    11:00 +10°C° 0 mm 1 mps 632 mmHg 72%
    12:00 +11°C° 0 mm 1 mps 632 mmHg 67%
    13:00 +12°C° 0 mm 1 mps 632 mmHg 62%
    14:00 +11°C° 0 mm 1 mps 632 mmHg 68%
    15:00 +9°C° 0 mm 2 mps 631 mmHg 74%
    16:00 +8°C° 0 mm 2 mps 631 mmHg 80%
    17:00 +7°C° 0.2 mm 2 mps 631 mmHg 85%
    18:00 +7°C° 0.2 mm 1 mps 630 mmHg 91%
    19:00 +5°C° 0.2 mm 1 mps 630 mmHg 97%
    20:00 +5°C° 0.9 mm 1 mps 630 mmHg 97%
    21:00 +5°C° 0.9 mm 1 mps 631 mmHg 97%
    22:00 +4°C° 0.9 mm 2 mps 631 mmHg 96%
    23:00 +4°C° 1 mm 2 mps 631 mmHg 97%

    21 October, Sunday

    Time Temperature Precipitation Wind Pressure Humidity
    00:00 +3°C° 1 mm 2 mps 630 mmHg 97%
    01:00 +3°C° 1 mm 2 mps 630 mmHg 97%
    02:00 +2°C° 0.3 mm 2 mps 630 mmHg 97%
    03:00 +2°C° 0.3 mm 2 mps 630 mmHg 97%
    04:00 +2°C° 0.3 mm 2 mps 630 mmHg 96%
    05:00 +1°C° 0.1 mm 2 mps 630 mmHg 96%
    06:00 +1°C° 0.1 mm 2 mps 630 mmHg 96%
    07:00 -1°C° 0.1 mm 2 mps 630 mmHg 96%
    08:00 +1°C° 0.1 mm 2 mps 630 mmHg 91%
    09:00 +2°C° 0.1 mm 2 mps 630 mmHg 86%
    10:00 +2°C° 0.1 mm 2 mps 630 mmHg 81%
    11:00 +3°C° 0.1 mm 2 mps 630 mmHg 75%
    12:00 +3°C° 0.1 mm 2 mps 630 mmHg 69%
    13:00 +4°C° 0.1 mm 2 mps 630 mmHg 63%
    14:00 +3°C° 0.1 mm 2 mps 630 mmHg 65%
    15:00 +3°C° 0.1 mm 2 mps 629 mmHg 68%
    16:00 +2°C° 0.1 mm 2 mps 629 mmHg 71%
    17:00 +1°C° 0 mm 2 mps 629 mmHg 78%
    18:00 +1°C° 0 mm 1 mps 629 mmHg 86%
    19:00 -1°C° 0 mm 1 mps 629 mmHg 93%
    20:00 -1°C° 0 mm 1 mps 629 mmHg 93%
    21:00 -1°C° 0 mm 1 mps 629 mmHg 93%
    22:00 -1°C° 0 mm 1 mps 630 mmHg 93%
    23:00 -2°C° 0 mm 1 mps 629 mmHg 93%
    Show more